Location: Caltech
(34.1382°N, 118.1253°W)
Time: 05:54:45
(UTC-08:00)

Iridium 95 - Visible Passes

Search period start: 26 November 2014 00:00
Search period end: 06 December 2014 00:00
Orbit: 776 x 779 km, 86.4° (Epoch: 25 November)

Date Brightness Start Highest point End Pass type
(mag) Time Alt. Az. Time Alt. Az. Time Alt. Az.
26 Nov 5.9 04:13:51 31° NNE 04:16:17 62° E 04:21:24 10° SSE visible
26 Nov 7.2 05:54:30 10° WNW 05:56:20 12° W 05:58:11 10° W visible
26 Nov 6.4 17:03:51 10° SSW 17:08:56 56° W 17:14:03 10° N visible
27 Nov 7.1 03:42:11 31° ENE 03:42:39 31° E 03:47:14 10° SE visible
27 Nov 6.5 05:22:46 23° WNW 05:23:08 23° W 05:27:10 10° SW visible
28 Nov 8.2 03:10:16 15° E 03:10:16 15° E 03:12:08 10° ESE visible
28 Nov 6.0 04:50:51 40° WSW 04:50:51 40° WSW 04:54:43 10° SSW visible
28 Nov 8.2 17:39:06 10° SW 17:42:48 20° W 17:46:31 10° NNW visible
29 Nov 6.6 04:18:45 33° S 04:18:45 33° S 04:21:34 10° S visible
29 Nov 7.2 17:04:17 10° SSW 17:09:04 37° W 17:13:53 10° NNW visible
30 Nov 7.7 03:46:32 17° SSE 03:46:32 17° SSE 03:47:47 10° SSE visible
01 Dec 8.4 17:40:43 10° WSW 17:43:03 13° WNW 17:45:24 10° NW visible
02 Dec 7.9 17:05:01 10° SW 17:09:15 25° W 17:13:31 10° NNW visible
05 Dec 8.2 17:06:09 10° WSW 17:09:28 17° WNW 17:12:49 10° NW visible
